Location: Home
(42.5358°N, 72.7383°W)
Time: 15:53:45
(UTC-05:00)

Vanguard 1 - Pass Details

Date: 04 December 2021
Orbit: 652 x 3830 km, 34.2° (Epoch: 19 January)

Event Time Altitude Azimuth Distance (km) Brightness Sun altitude
Rises 07:08:43 0° 282° (WNW) 7,364 13.9 -0.2°
Reaches altitude 10° 07:16:39 10° 266° (W) 5,744 13.5 1.1°
Maximum altitude 07:25:19 17° 234° (SW) 4,350 13.2 2.4°
Drops below altitude 10° 07:31:52 10° 199° (SSW) 4,148 13.5 3.4°
Sets 07:36:11 0° 179° (S) 4,608 14.1 4.1°
